Junction, TX

9:07 AM CST on December 18, 2017 (GMT -0600)
Kimble County

Weather History for KJCT - August, 2013

Change the Weather History Date:

Friday, August 2, 2013

  Actual Average Record
Temperature  
Mean Temperature 86 °F -  
Max Temperature 100 °F 93 °F 107 °F (2012)
Min Temperature 73 °F 69 °F 64 °F (2005)
Cooling Degree Days 22    
Growing Degree Days 36 (Base 50)    
Moisture  
Dew Point 61 °F    
Average Humidity 46    
Maximum Humidity 79    
Minimum Humidity 20    
Precipitation  
Precipitation 0.00 in - - ()
Sea Level Pressure  
Sea Level Pressure 29.86 in    
Wind  
Wind Speed 5 mph (South)    
Max Wind Speed 15 mph    
Max Gust Speed 22 mph    
Visibility 10 miles    
Events      
Averages and records for this station are not official NWS values.
T = Trace of Precipitation, MM = Missing Value Source: NWS Daily Summary

Daily Weather History Graph

Daily Weather History Graph

Search for Another Location

Airport or City:

Trip Planner

Search our weather history database for the weather conditions in past years. The results will help you decide how hot, cold, wet, or windy it might be!

Date:

Astronomy

Aug. 02, 2013 Rise Set
Actual Time 6:57 AM CDT 8:32 PM CDT
Civil Twilight 6:31 AM CDT 8:58 PM CDT
Nautical Twilight 6:00 AM CDT 9:29 PM CDT
Astronomical Twilight 5:27 AM CDT 10:01 PM CDT
Moon 3:23 AM CDT (8/2) 5:28 PM CDT (8/2)
Length of Visible Light 14h 26m
Length of Day
13h 34m
Waning Crescent, 15% of the Moon is Illuminated
Aug 2
Waning Crescent
Aug 6
New
Aug 14
First Quarter
Aug 20
Full
Aug 28
Last Quarter

Hourly Weather History & Observations

Time (CDT) Temp. Heat Index Dew Point Humidity Pressure Visibility Wind Dir Wind Speed Gust Speed Precip Events Conditions
12:51 AM 81.0 °F 83.3 °F 66.9 °F 62% 29.87 in 10.0 mi ESE 4.6 mph - N/A   Clear
1:51 AM 80.1 °F 82.7 °F 68.0 °F 67% 29.87 in 10.0 mi South 3.5 mph - N/A   Clear
2:51 AM 79.0 °F - 66.0 °F 64% 29.86 in 10.0 mi South 6.9 mph - N/A   Clear
3:51 AM 78.1 °F - 64.9 °F 64% 29.87 in 10.0 mi South 6.9 mph - N/A   Clear
4:51 AM 77.0 °F - 64.0 °F 64% 29.87 in 10.0 mi South 3.5 mph - N/A   Clear
5:51 AM 73.9 °F - 64.9 °F 73% 29.87 in 10.0 mi ENE 3.5 mph - N/A   Clear
6:51 AM 73.0 °F - 64.9 °F 76% 29.90 in 10.0 mi NE 3.5 mph - N/A   Clear
7:51 AM 73.0 °F - 66.0 °F 79% 29.91 in 9.0 mi Calm Calm - N/A   Clear
8:51 AM 75.9 °F - 64.9 °F 69% 29.93 in 10.0 mi South 3.5 mph - N/A   Clear
9:51 AM 81.0 °F 83.0 °F 66.0 °F 60% 29.93 in 10.0 mi SW 4.6 mph - N/A   Clear
10:51 AM 86.0 °F 87.6 °F 64.9 °F 49% 29.91 in 10.0 mi SSW 5.8 mph - N/A   Clear
11:51 AM 91.0 °F 93.0 °F 64.9 °F 42% 29.89 in 10.0 mi Variable 5.8 mph - N/A   Clear
12:51 PM 93.9 °F 94.0 °F 61.0 °F 33% 29.88 in 10.0 mi SSW 5.8 mph - N/A   Clear
1:51 PM 95.0 °F 94.0 °F 57.9 °F 29% 29.86 in 10.0 mi Variable 4.6 mph - N/A   Clear
2:51 PM 98.1 °F 96.8 °F 57.0 °F 25% 29.83 in 10.0 mi SW 6.9 mph - N/A   Clear
3:51 PM 100.0 °F 98.3 °F 55.0 °F 22% 29.81 in 10.0 mi SSW 10.4 mph 16.1 mph N/A   Clear
4:51 PM 100.0 °F - 52.0 °F 20% 29.79 in 10.0 mi South 6.9 mph 17.3 mph N/A   Clear
5:51 PM 99.0 °F - 51.1 °F 20% 29.79 in 10.0 mi South 6.9 mph - N/A   Clear
6:51 PM 97.0 °F 94.6 °F 53.1 °F 23% 29.79 in 10.0 mi South 5.8 mph - N/A   Clear
7:51 PM 95.0 °F 93.0 °F 55.0 °F 26% 29.81 in 10.0 mi South 3.5 mph - N/A   Clear
8:51 PM 91.0 °F 88.9 °F 55.0 °F 29% 29.81 in 10.0 mi South 6.9 mph - N/A   Clear
9:51 PM 90.0 °F 88.8 °F 57.9 °F 34% 29.83 in 10.0 mi SSE 15.0 mph 21.9 mph N/A   Clear
10:51 PM 87.1 °F 86.5 °F 59.0 °F 39% 29.85 in 10.0 mi South 6.9 mph 17.3 mph N/A   Clear
11:51 PM 84.9 °F 84.4 °F 59.0 °F 41% 29.86 in 10.0 mi South 10.4 mph - N/A   Clear